Wind_Speed
17 17 16 16 16 16 16 17 18 18 19 18 17 17 17 18 19 19 19 19 19 19 19 19 19 19 20 20 21 21 22 21 21 20 21 21 21 21 22 21 21 21 21
17 17 17 17 17 17 18 18 18 19 18 19 18 18 18 18 19 19 19 19 19 19 19 19 19 20 21 21 21 22 22 22 21 21 20 21 21 21 21 22 22 22 21
18 18 18 18 18 18 19 19 19 19 19 19 19 18 18 19 19 19 19 20 20 20 20 20 20 20 20 20 21 22 22 22 22 21 21 21 21 21 21 22 23 23 22
19 19 19 19 19 19 19 19 19 19 20 19 19 19 19 20 19 19 19 19 20 20 20 21 21 21 21 21 21 22 23 22 22 22 23 23 23 22 21 22 22 22 22
21 20 20 20 21 20 20 20 20 20 20 20 21 21 21 20 20 20 20 20 20 19 20 20 21 22 22 22 22 22 22 22 22 22 23 23 23 23 23 22 23 23 22
21 21 22 22 21 21 21 21 22 21 21 21 22 22 21 22 21 21 20 20 20 20 20 21 22 22 22 22 22 22 22 22 22 23 23 23 24 24 23 23 22 22 22
23 23 23 23 22 22 23 23 23 22 22 22 21 22 22 22 21 20 20 20 20 20 21 21 21 22 23 23 23 23 22 23 23 23 23 23 23 23 23 22 23 22 22
23 23 23 24 24 24 24 24 24 23 23 22 22 22 21 20 20 20 20 21 21 21 22 22 22 23 23 23 23 23 23 23 23 24 23 23 23 23 23 22 22 22 21
24 24 25 25 25 25 24 25 24 24 24 24 23 22 21 21 21 20 20 21 21 22 22 23 23 23 23 23 24 24 24 24 24 24 24 24 23 23 22 22 22 22 22
25 25 26 26 26 25 25 25 25 25 25 24 23 22 21 21 21 21 21 21 22 22 22 22 23 23 23 23 23 23 23 24 24 23 23 23 23 22 22 22 22 22 22
26 25 25 25 25 26 26 26 26 26 26 26 24 23 22 22 22 22 22 22 22 22 22 23 23 22 23 23 23 23 23 23 23 23 22 22 21 22 22 23 23 23 22
27 27 26 25 25 26 26 27 27 27 27 27 26 23 22 22 22 23 23 22 22 22 22 23 23 23 23 23 23 22 22 23 23 23 22 22 22 22 23 23 23 22 22
27 27 27 26 26 26 27 28 28 27 26 25 25 24 23 22 22 22 22 22 22 22 22 23 23 24 24 23 23 22 23 23 23 23 22 22 22 23 23 22 22 22 22
28 27 27 28 27 28 28 28 27 27 25 25 25 24 23 23 22 22 22 22 23 23 23 24 24 24 23 23 22 22 23 22 22 22 22 22 23 23 22 22 22 22 22
28 28 28 28 28 28 27 27 27 26 26 25 24 24 23 23 23 23 23 23 23 23 24 24 24 24 24 23 23 23 23 22 21 21 22 22 22 22 22 21 21 22 23
28 28 28 28 27 27 27 27 26 26 25 24 23 23 23 23 24 24 24 23 23 23 24 25 24 24 23 23 22 22 22 22 21 21 21 21 21 21 21 20 20 21 22
27 27 27 26 26 25 25 25 24 24 24 23 23 23 22 22 23 24 24 24 23 23 23 24 24 23 22 21 21 21 21 21 22 21 20 20 21 21 21 20 20 21 21
27 26 26 26 25 25 24 24 24 23 23 24 23 23 23 23 23 23 23 23 23 23 23 22 22 22 21 21 21 21 21 22 22 21 20 20 20 20 20 20 20 20 20
26 26 26 25 26 25 24 24 24 23 23 23 23 23 23 23 23 23 22 22 22 22 22 22 21 20 20 20 21 21 21 21 20 20 19 19 19 19 19 19 19 19 19
26 26 26 26 25 25 24 24 24 24 23 23 23 23 23 23 23 23 21 21 21 21 21 21 21 21 20 20 20 20 20 20 20 19 19 19 19 19 18 18 18 18 19
24 24 24 25 25 25 25 25 24 24 24 24 23 23 23 23 23 22 21 21 21 21 21 21 20 20 20 20 20 19 20 20 20 20 20 19 18 17 18 19 19 18 18
24 24 25 25 24 23 24 24 24 24 23 23 22 22 22 22 22 22 21 21 21 21 20 20 20 20 19 18 19 19 19 20 19 19 19 18 17 18 18 18 18 18 18
24 24 24 23 23 23 23 23 22 23 23 23 22 21 21 22 22 22 21 19 19 19 19 19 19 18 18 18 18 18 18 19 19 19 18 17 18 18 18 19 18 19 20
23 23 23 23 23 22 22 22 22 22 22 21 21 21 21 21 21 21 19 18 17 18 18 18 17 17 17 17 17 18 18 19 19 19 18 18 18 19 19 19 20 20 20
22 22 22 22 21 21 21 21 21 21 20 20 19 20 21 20 19 19 18 17 17 17 17 16 16 16 16 16 17 17 18 18 19 19 20 20 19 19 19 19 19 20 20
20 20 20 20 20 20 20 20 20 20 21 20 20 20 19 19 18 17 17 16 16 15 15 16 16 16 16 16 17 16 17 18 19 19 19 20 20 19 19 19 19 19 20
Wind_Direction
299 300 303 300 297 296 292 291 293 293 292 291 288 286 285 284 285 283 285 284 282 279 278 278 276 275 276 276 276 273 271 270 269 270 271 273 273 269 269 272 272 271 271
298 298 298 299 299 299 298 295 294 291 292 289 287 288 286 285 284 283 281 284 281 278 277 276 276 276 278 277 277 277 275 272 269 270 273 274 275 272 270 270 271 271 271
296 298 298 299 297 299 301 300 297 293 292 292 290 290 288 289 288 284 281 281 279 276 275 275 276 276 277 277 276 276 275 274 272 270 270 272 272 272 272 271 272 274 270
293 296 301 302 301 303 305 302 299 297 297 296 292 291 291 292 291 286 283 280 277 276 275 275 275 277 278 278 277 276 276 275 273 271 269 271 272 272 270 270 271 272 270
290 293 295 298 299 301 302 302 300 299 298 296 293 294 294 291 291 290 285 283 280 280 279 277 276 276 276 276 276 276 275 275 273 273 271 271 273 274 272 271 270 269 269
286 289 292 294 297 299 301 300 299 298 298 298 296 295 294 292 290 289 288 287 284 283 281 279 277 276 276 276 275 274 274 274 273 273 271 272 273 275 273 271 270 268 268
285 286 288 291 295 298 299 300 300 298 298 297 296 294 293 291 289 288 286 286 285 284 283 281 278 277 275 276 275 275 274 273 273 272 270 271 273 275 274 271 270 268 268
288 287 288 290 293 295 296 297 298 296 297 296 295 293 291 290 289 288 286 286 286 285 283 281 280 278 277 276 276 275 274 274 275 273 271 271 271 272 272 272 270 268 270
289 288 286 288 291 293 294 296 298 297 296 294 292 291 289 290 289 288 287 288 288 287 284 282 280 278 277 275 274 273 273 274 276 275 273 272 272 270 270 271 269 270 270
288 288 287 287 289 291 292 293 294 295 295 293 290 288 288 288 289 287 287 287 288 288 286 284 281 279 277 275 275 274 274 275 276 276 275 274 272 270 268 269 269 269 270
286 288 288 288 289 289 290 292 293 294 294 293 289 287 286 287 288 287 286 285 286 286 287 285 282 280 278 276 275 273 272 273 274 275 275 274 271 270 269 268 268 269 269
285 287 287 288 289 288 289 291 292 292 294 294 291 286 285 286 288 287 285 284 285 285 284 284 283 280 278 277 276 274 273 273 273 274 274 272 272 272 271 270 269 269 268
285 285 285 287 289 289 289 290 291 291 293 294 293 286 283 285 287 288 286 284 284 284 284 285 285 282 280 277 275 274 274 274 273 272 271 270 271 272 272 270 269 269 269
284 285 286 287 287 288 290 290 291 292 291 292 290 288 285 283 285 285 285 284 283 284 284 284 283 281 277 276 274 275 276 275 273 272 271 271 270 270 269 268 267 271 271
283 284 286 286 287 288 288 289 289 288 289 290 288 287 286 285 285 284 283 284 284 284 284 282 282 280 277 274 272 275 276 275 273 274 273 271 270 270 270 269 269 271 271
283 283 284 286 288 287 287 288 289 289 288 289 288 287 287 286 286 286 285 284 283 283 282 282 281 280 277 275 274 272 272 272 272 273 273 272 270 271 269 269 272 272 271
282 283 284 284 286 287 288 289 288 287 287 289 289 288 288 288 287 286 285 283 282 282 281 282 281 280 275 273 271 271 270 270 270 270 270 270 270 270 271 271 273 272 269
280 281 281 282 284 286 287 289 288 287 287 288 290 291 289 289 289 289 286 284 282 281 280 280 280 278 273 271 270 271 270 268 268 267 267 269 269 269 271 274 275 274 270
279 280 280 282 284 284 284 286 287 287 287 289 291 291 289 288 287 287 287 286 284 284 282 281 277 275 273 271 269 270 270 268 266 266 266 267 269 269 271 273 273 272 269
279 279 279 281 284 283 284 284 285 286 286 287 289 290 290 288 287 286 286 287 286 285 285 284 278 273 272 270 268 266 266 266 265 266 267 268 268 269 270 271 271 271 271
282 281 281 283 282 282 282 282 282 283 284 286 288 288 290 289 288 288 286 286 286 286 286 284 281 277 273 268 266 264 265 266 266 265 268 270 271 271 270 268 266 268 269
282 282 282 284 283 282 282 282 282 282 284 286 288 288 288 288 288 289 288 286 286 286 285 285 285 281 273 269 266 264 265 265 266 267 269 270 271 272 272 270 266 266 266
280 281 281 281 281 282 284 284 283 284 285 287 287 286 287 289 291 289 286 281 282 282 280 282 284 281 275 269 268 267 267 265 265 265 267 270 271 271 271 270 269 267 265
279 279 278 278 281 282 284 285 283 284 285 285 286 288 288 289 289 288 284 281 282 283 281 279 280 278 274 271 268 269 268 267 266 265 267 270 268 268 268 268 269 268 267
279 279 279 278 280 281 282 283 282 282 282 285 289 289 288 287 288 288 285 283 283 285 283 281 281 278 273 270 268 270 270 269 270 269 267 266 266 267 268 270 270 270 269
279 278 278 277 277 278 281 283 283 281 282 284 287 290 289 288 288 288 286 282 281 281 282 283 281 276 274 273 272 272 270 269 269 270 268 267 266 268 270 271 273 273 271
Height
5857 5855 5854 5852 5850 5848 5847 5845 5844 5842 5840 5838 5837 5835 5834 5832 5831 5831 5830 5829 5828 5827 5826 5825 5825 5824 5824 5823 5822 5822 5821 5822 5822 5821 5820 5820 5819 5819 5819 5818 5818 5817 5817
5853 5851 5849 5847 5846 5844 5842 5841 5839 5837 5835 5833 5831 5829 5828 5826 5825 5824 5823 5822 5821 5820 5820 5819 5819 5818 5817 5816 5816 5815 5815 5814 5815 5814 5813 5813 5812 5812 5812 5812 5811 5811 5811
5848 5846 5844 5843 5841 5839 5838 5836 5833 5831 5829 5828 5825 5824 5822 5820 5818 5817 5816 5815 5814 5813 5813 5812 5812 5811 5811 5810 5809 5808 5808 5808 5807 5807 5807 5806 5806 5805 5805 5804 5804 5804 5804
5843 5841 5839 5837 5835 5833 5832 5830 5828 5826 5824 5822 5820 5818 5816 5814 5813 5811 5810 5809 5808 5806 5806 5805 5805 5805 5804 5803 5802 5802 5801 5801 5801 5800 5800 5799 5799 5798 5798 5798 5797 5797 5797
5838 5836 5834 5832 5830 5828 5826 5824 5822 5820 5818 5816 5814 5812 5810 5809 5807 5805 5804 5803 5801 5800 5799 5798 5798 5797 5797 5796 5795 5795 5794 5794 5794 5793 5793 5793 5792 5791 5791 5791 5790 5790 5790
5832 5830 5827 5826 5824 5822 5820 5818 5816 5814 5812 5809 5808 5806 5804 5803 5801 5799 5797 5796 5795 5794 5792 5791 5791 5790 5789 5788 5788 5788 5787 5787 5787 5786 5786 5785 5785 5784 5784 5784 5783 5783 5783
5825 5823 5821 5820 5818 5817 5814 5812 5810 5808 5805 5803 5801 5799 5798 5797 5795 5793 5792 5790 5789 5788 5786 5785 5784 5783 5782 5781 5781 5780 5780 5779 5780 5779 5779 5778 5778 5777 5777 5776 5776 5776 5776
5819 5817 5815 5813 5812 5810 5808 5806 5803 5801 5799 5797 5795 5793 5791 5790 5789 5787 5786 5784 5783 5781 5780 5778 5777 5776 5775 5774 5774 5773 5773 5772 5772 5771 5771 5771 5770 5770 5769 5769 5769 5769 5768
5812 5810 5808 5807 5805 5803 5801 5799 5796 5794 5792 5790 5788 5786 5785 5784 5782 5781 5779 5777 5776 5775 5773 5772 5771 5769 5768 5768 5767 5766 5765 5765 5764 5764 5763 5763 5762 5762 5762 5762 5761 5761 5761
5804 5803 5801 5799 5797 5796 5794 5792 5790 5788 5785 5783 5781 5779 5778 5777 5776 5774 5772 5771 5770 5768 5767 5765 5764 5762 5761 5760 5760 5759 5759 5758 5757 5756 5756 5755 5755 5755 5754 5754 5754 5754 5754
5797 5795 5794 5792 5790 5789 5787 5785 5783 5780 5778 5775 5774 5772 5771 5770 5769 5767 5765 5764 5762 5761 5760 5758 5757 5755 5754 5753 5752 5752 5752 5751 5750 5749 5749 5748 5748 5748 5747 5747 5747 5747 5747
5788 5787 5786 5784 5783 5781 5779 5777 5775 5773 5771 5769 5766 5765 5763 5762 5761 5760 5758 5757 5755 5754 5753 5751 5750 5748 5747 5746 5745 5745 5744 5744 5743 5743 5742 5742 5741 5741 5740 5740 5740 5739 5739
5780 5779 5778 5776 5775 5773 5771 5769 5767 5765 5763 5761 5759 5757 5756 5755 5754 5752 5751 5749 5748 5747 5745 5744 5742 5741 5740 5739 5738 5737 5737 5736 5736 5736 5735 5735 5735 5734 5733 5733 5733 5732 5732
5771 5770 5769 5768 5767 5765 5763 5761 5759 5757 5755 5753 5751 5750 5749 5748 5747 5746 5744 5742 5741 5740 5738 5737 5735 5733 5732 5732 5731 5730 5730 5729 5729 5729 5728 5728 5727 5727 5727 5726 5726 5726 5726
5763 5762 5761 5760 5758 5756 5755 5753 5751 5749 5747 5746 5744 5743 5742 5741 5740 5738 5737 5735 5734 5732 5731 5729 5728 5726 5725 5724 5723 5723 5723 5723 5722 5722 5721 5720 5720 5720 5720 5720 5720 5719 5719
5754 5753 5752 5751 5750 5748 5747 5745 5743 5742 5740 5738 5737 5736 5735 5734 5732 5731 5729 5727 5726 5724 5723 5721 5720 5718 5717 5717 5717 5716 5716 5716 5715 5715 5714 5714 5713 5713 5713 5713 5713 5713 5712
5745 5744 5743 5742 5741 5740 5738 5737 5735 5734 5733 5731 5730 5729 5727 5726 5725 5723 5721 5719 5718 5716 5715 5714 5712 5711 5710 5710 5710 5709 5709 5709 5709 5708 5708 5708 5707 5707 5707 5707 5706 5705 5705
5736 5736 5735 5734 5733 5732 5730 5729 5728 5727 5726 5724 5723 5721 5720 5719 5717 5716 5714 5712 5711 5709 5707 5706 5705 5704 5703 5703 5703 5702 5702 5702 5701 5702 5702 5701 5701 5701 5700 5700 5699 5698 5698
5728 5727 5726 5726 5725 5724 5723 5722 5720 5719 5718 5717 5715 5714 5712 5711 5710 5709 5707 5705 5704 5702 5701 5700 5698 5697 5697 5696 5696 5696 5696 5696 5696 5695 5695 5695 5695 5695 5694 5694 5693 5693 5692
5719 5719 5718 5718 5717 5716 5715 5714 5713 5712 5711 5710 5708 5707 5705 5704 5703 5701 5700 5698 5697 5696 5694 5693 5692 5691 5690 5690 5690 5690 5690 5690 5690 5690 5689 5689 5689 5689 5688 5688 5687 5687 5687
5712 5711 5710 5709 5709 5708 5707 5706 5705 5705 5703 5702 5701 5700 5698 5696 5695 5694 5693 5692 5690 5689 5688 5687 5685 5684 5683 5683 5683 5683 5684 5684 5684 5684 5684 5683 5683 5682 5682 5682 5682 5681 5681
5704 5703 5702 5702 5701 5700 5699 5698 5697 5696 5695 5694 5693 5692 5691 5689 5688 5686 5685 5685 5684 5683 5682 5680 5679 5678 5677 5677 5677 5677 5678 5678 5678 5678 5678 5677 5677 5676 5676 5676 5676 5675 5675
5696 5695 5695 5694 5694 5693 5692 5691 5690 5690 5689 5688 5686 5685 5684 5682 5681 5679 5678 5677 5677 5676 5675 5674 5673 5672 5672 5671 5671 5672 5672 5672 5672 5672 5671 5671 5671 5670 5670 5670 5670 5669 5669
5689 5688 5688 5687 5687 5686 5685 5685 5684 5683 5683 5682 5680 5679 5677 5676 5674 5672 5670 5670 5670 5669 5668 5668 5667 5666 5666 5665 5665 5665 5665 5665 5665 5665 5665 5665 5665 5664 5664 5664 5664 5663 5663
5682 5681 5681 5680 5680 5680 5679 5678 5677 5677 5676 5675 5674 5672 5671 5669 5667 5665 5664 5664 5664 5663 5663 5662 5661 5660 5660 5660 5660 5659 5659 5659 5659 5659 5659 5659 5658 5658 5658 5657 5657 5657 5656
5675 5675 5674 5674 5674 5673 5672 5672 5671 5671 5670 5669 5668 5666 5664 5663 5661 5660 5659 5658 5658 5657 5657 5656 5656 5655 5654 5654 5654 5653 5653 5653 5653 5652 5652 5652 5652 5651 5651 5651 5650 5650 5649